N32AT MYGF-MYAM

Flight info

Callsign N32AT
Flight time N/A
Altitude 11000
Route DCT
Aircraft B407/L-SDFGRY/C

Departure

Time 2026-04-16 04:54
Airport Grand Bahama International Airport (MYGF)

Arrival

Time N/A
Airport Leonard M. Thompson International Airport (MYAM)
Time Latitude Longitude Altitude Speed Heading
2026-04-16 04:49 26.54855 -78.70110 16 ft 0 kts 270°
2026-04-16 04:52 26.54855 -78.70111 18 ft 2 kts 278°
2026-04-16 04:52 26.54848 -78.70117 29 ft 4 kts 55°
2026-04-16 04:52 26.54848 -78.70113 58 ft 8 kts 40°
2026-04-16 04:52 26.54891 -78.69971 227 ft 39 kts 60°
2026-04-16 04:53 26.55117 -78.69603 397 ft 76 kts 51°
2026-04-16 04:53 26.55313 -78.68934 405 ft 102 kts 86°
2026-04-16 04:53 26.55307 -78.68106 478 ft 110 kts 87°
2026-04-16 04:53 26.55298 -78.67220 508 ft 114 kts 86°
2026-04-16 04:54 26.55269 -78.66433 895 ft 100 kts 94°
2026-04-16 04:54 26.55125 -78.65640 1253 ft 107 kts 101°
2026-04-16 04:54 26.54896 -78.64854 1615 ft 109 kts 106°
2026-04-16 04:54 26.54757 -78.64047 1979 ft 107 kts 88°
2026-04-16 04:55 26.54746 -78.63222 2338 ft 107 kts 89°
2026-04-16 04:55 26.54742 -78.62396 2697 ft 106 kts 88°
2026-04-16 04:55 26.54739 -78.61573 3056 ft 106 kts 88°
2026-04-16 04:55 26.54740 -78.60767 3412 ft 105 kts 88°
2026-04-16 04:56 26.54814 -78.59967 3769 ft 104 kts 74°
2026-04-16 04:56 26.55039 -78.59198 4130 ft 104 kts 73°
2026-04-16 04:56 26.55270 -78.58417 4421 ft 112 kts 72°
2026-04-16 04:56 26.55517 -78.57540 4503 ft 127 kts 71°
2026-04-16 04:57 26.55776 -78.56593 4500 ft 136 kts 71°
2026-04-16 04:57 26.56061 -78.55528 4496 ft 139 kts 71°
2026-04-16 04:57 26.56309 -78.54575 4491 ft 138 kts 71°
2026-04-16 04:57 26.56575 -78.53555 4490 ft 137 kts 71°
2026-04-16 04:58 26.56844 -78.52525 4488 ft 136 kts 71°
2026-04-16 04:58 26.57112 -78.51508 4487 ft 137 kts 71°
2026-04-16 04:58 26.57383 -78.50497 4486 ft 137 kts 71°
2026-04-16 04:58 26.57659 -78.49461 4486 ft 138 kts 71°
2026-04-16 04:59 26.57929 -78.48442 4483 ft 138 kts 71°
2026-04-16 04:59 26.58203 -78.47411 4481 ft 138 kts 71°
2026-04-16 04:59 26.58480 -78.46371 4479 ft 138 kts 71°
2026-04-16 04:59 26.58753 -78.45345 4478 ft 138 kts 71°
2026-04-16 05:00 26.59026 -78.44312 4478 ft 138 kts 71°
2026-04-16 05:00 26.59297 -78.43278 4478 ft 138 kts 71°
2026-04-16 05:00 26.59568 -78.42246 4479 ft 138 kts 71°
2026-04-16 05:00 26.59838 -78.41215 4480 ft 138 kts 71°
2026-04-16 05:01 26.60104 -78.40189 4480 ft 137 kts 71°
2026-04-16 05:01 26.60373 -78.39158 4477 ft 138 kts 71°
2026-04-16 05:01 26.60639 -78.38146 4547 ft 133 kts 71°
2026-04-16 05:01 26.60900 -78.37158 4666 ft 129 kts 71°
2026-04-16 05:02 26.61156 -78.36206 4789 ft 128 kts 71°